Weather History for Riverside March, CA

Change the Weather History Date:

Tuesday, September 24, 2013

  Actual Average Record
Temperature  
Mean Temperature 72 °F -  
Max Temperature 91 °F 85 °F 102 °F (2001)
Min Temperature 54 °F 57 °F 48 °F (2007)
Cooling Degree Days 7    
Growing Degree Days 22 (Base 50)    
Moisture  
Dew Point 42 °F    
Average Humidity 39    
Maximum Humidity 61    
Minimum Humidity 15    
Precipitation  
Precipitation 0.00 in - - ()
Sea Level Pressure  
Sea Level Pressure 29.89 in    
Wind  
Wind Speed 4 mph (WNW)    
Max Wind Speed 20 mph    
Max Gust Speed -    
Visibility 10 miles    
Events      
Averages and records for this station are not official NWS values.
T = Trace of Precipitation, MM = Missing Value Source: NWS Daily Summary

Daily Weather History Graph

Daily Weather History Graph

Search for Another Location

Airport:

Trip Planner

Search our weather history database for the weather conditions in past years. The results will help you decide how hot, cold, wet, or windy it might be!

Date:

Astronomy

Sep. 24, 2013 Rise Set
Actual Time 6:38 AM PDT 6:42 PM PDT
Civil Twilight 6:13 AM PDT 7:07 PM PDT
Nautical Twilight 5:44 AM PDT 7:36 PM PDT
Astronomical Twilight 5:15 AM PDT 8:05 PM PDT
Moon 10:17 PM PDT (9/24) 11:43 AM PDT (9/24)
Length of Visible Light 12h 53m
Length of Day
12h 03m
Waning Gibbous, 72% of the Moon is Illuminated
Sep 24
Waning Gibbous
Sep 26
Last Quarter
Oct 4
New
Oct 11
First Quarter
Oct 18
Full

Hourly Weather History & Observations

Time (PDT) Temp. Dew Point Humidity Pressure Visibility Wind Dir Wind Speed Gust Speed Precip Events Conditions
12:58 AM 59.7 °F 42.6 °F 53% 29.89 in 10.0 mi WNW 1.2 mph - N/A   Clear
1:58 AM 59.2 °F 45.0 °F 59% 29.91 in 10.0 mi WNW 3.5 mph - N/A   Clear
2:58 AM 56.5 °F 42.1 °F 59% 29.91 in 10.0 mi Calm Calm - N/A   Clear
3:58 AM 55.0 °F 40.5 °F 58% 29.91 in 10.0 mi Calm Calm - N/A   Clear
4:58 AM 54.9 °F 41.0 °F 60% 29.91 in 10.0 mi Calm Calm - N/A   Clear
5:58 AM 55.0 °F 39.4 °F 56% 29.91 in 10.0 mi Calm Calm - N/A   Clear
6:58 AM 54.3 °F 38.1 °F 54% 29.92 in 10.0 mi Calm Calm - N/A   Clear
7:58 AM 61.7 °F 46.6 °F 58% 29.93 in 10.0 mi Calm Calm - N/A   Clear
8:58 AM 69.4 °F 45.0 °F 41% 29.94 in 10.0 mi Calm Calm - N/A   Clear
9:58 AM 75.9 °F 43.7 °F 32% 29.94 in 10.0 mi Calm Calm - N/A   Clear
10:58 AM 82.8 °F 39.6 °F 22% 29.93 in 10.0 mi Calm Calm - N/A   Clear
11:58 AM 87.6 °F 38.3 °F 18% 29.90 in 10.0 mi NNW 11.5 mph - N/A   Clear
12:58 PM 88.9 °F 39.9 °F 18% 29.88 in 10.0 mi WNW 10.4 mph - N/A   Clear
1:58 PM 90.1 °F 37.2 °F 15% 29.86 in 10.0 mi WNW 10.4 mph - N/A   Clear
2:58 PM 90.0 °F 37.0 °F 15% 29.85 in 10.0 mi NW 15.0 mph - N/A   Clear
3:58 PM 88.5 °F 39.0 °F 17% 29.84 in 10.0 mi NW 19.6 mph - N/A   Clear
4:58 PM 85.6 °F 39.4 °F 19% 29.83 in 10.0 mi WNW 18.4 mph - N/A   Clear
5:58 PM 81.9 °F 38.8 °F 22% 29.84 in 10.0 mi WNW 10.4 mph - N/A   Clear
6:58 PM 77.0 °F 39.7 °F 26% 29.85 in 10.0 mi NNW 11.5 mph - N/A   Clear
7:58 PM 71.8 °F 39.6 °F 31% 29.86 in 10.0 mi WNW 5.8 mph - N/A   Clear
8:58 PM 70.9 °F 46.2 °F 41% 29.88 in 10.0 mi SW 3.5 mph - N/A   Clear
9:58 PM 67.5 °F 50.4 °F 54% 29.88 in 10.0 mi SSE 4.6 mph - N/A   Clear
10:58 PM 62.6 °F 46.8 °F 56% 29.88 in 10.0 mi SSE 3.5 mph - N/A   Clear
11:58 PM 60.6 °F 46.9 °F 61% 29.86 in 10.0 mi Calm Calm - N/A   Clear